STARLINK-2381, 47800

Orbit data source: Space-Track

STARLINK-2381, 47800 is a payload satellite owned by SpaceX/Seattle (US) in LEO that was launched on Thu, 11 Mar 2021 UTC via an FALCON 9 launch vehicle from the Air Force Eastern Test Range (AFETR). Payload-class satellites include a variety of spacecraft equipped with specific instruments for various scientific and technological missions. These include communications satellites like Starlink; space stations such as the ISS; scientific satellites like the Hubble; Earth observation satellites from companies like Planet Labs, Umbra, and HawkEye 360; GPS; miniature CubeSats for education and research; and military/defense satellites.

Loading next visibility...
Identifier
47800, 2021-018P
Orbit
LEO
Country
Flag of USUS
Related business
Manufacturer
SpaceX/Seattle
Mission
Operational Commercial Communications
Bus & Motor
STARLINK, Unknown motor
Mass
260 kg wet, ~248 kg dry
Launch date (UTC)
2021-03-11 (5 years ago)
Launch vehicle
FALCON 9
Launch site
Air Force Eastern Test Range (AFETR)
Object type
Payload
Rocket body
Debris
Shape & HBR
Box + 1 Pan, 10.1 m
Radar Cross Section
13.562 m², Large (>1 m²)

Expand to show TLE details & history
Last TLE update: 9 hours ago

TLE from 9 hours ago
0 STARLINK-2381
1 47800U 21018P   26035.38174162  .00002870  00000-0  21144-3 0  9991
2 47800  53.0556  21.1417 0001500  96.1009 264.0151 15.06410741271853
Epoch: 2026-02-04T09:09Z
TLE epoch observation values (Epoch: 2026-02-04T09:09:42.475Z)
Latitude
-0.00004°
Longitude
109.16556°
Altitude
548.166 km
Speed
7.589 km/s
True Right ascension
01h 24m 34s
True Declination
0° 00' 00"
Sunlit
Object was in daylight at epoch
Visualization orbit readout
Latitude
Unknown
Longitude
Unknown
Altitude
Unknown
Speed
Unknown
Apparent Right ascension
Unknown
Apparent Declination
Unknown
Sunlit
N/A
Visualization observer readout
Local Sidereal Time
20:01:21
Azimuth
Unknown
Elevation
Unknown
Doppler factor
Unknown
Orbital elements
Apogee altitude
548.488 km
Perigee altitude
546.41 km
Semi-major axis
6,925.586 km
Eccentricity
0.00015
Inclination
53.0556°
RAAN
21.1417°
Arg. of periapsis
96.1009°
True anomaly
263.99801°
Mean anomaly
264.0151°
Eccentric anomaly
264.00655°
Mean motion
3.76581 °/min
Orbital period
95.6 mins
BSTAR
0.00021144
Loading maneuver chart data...
Computing Atmospheric mass density...
Loading historical data...
Loading historical data...
Loading historical data...
Loading historical data...
Loading historical data...
Loading historical data...
Loading historical data...

Documentation

Showing up to 5 results
|